This is the latest recevied weather packets stored in our database for station/object Kirchdorf. If no packets are shown the sender has not sent any weather packets the latest 10 day(s).
| Time | Temp. | Humidity | Pressure | Rain* | Wind** | Luminosity | Snow |
|---|---|---|---|---|---|---|---|
| 1788579130 | 18.33° C | 83% | 1018.2 hPa | 0 mm | - | - | - |
| 1788577329 | 18.89° C | 79% | 1017.3 hPa | 0 mm | - | - | - |
| 1788575529 | 19.44° C | 77% | 1017.3 hPa | 0 mm | - | - | - |
| 1788573729 | 19.44° C | 77% | 1017.1 hPa | 0 mm | - | - | - |
| 1788571929 | 19.44° C | 76% | 1017 hPa | 0 mm | - | - | - |
| 1788570129 | 20.56° C | 74% | 1016.9 hPa | 0 mm | - | - | - |
| 1788568332 | 20° C | 78% | 1016.8 hPa | 0 mm | - | - | - |
| 1788566531 | 20° C | 75% | 1016.8 hPa | 0 mm | - | - | - |
| 1788564731 | 21.11° C | 70% | 1016.3 hPa | 0 mm | - | - | - |
| 1788562931 | 21.67° C | 68% | 1016 hPa | 0 mm | - | - | - |
| 1788561131 | 22.22° C | 66% | 1016.1 hPa | 0 mm | - | - | - |
| 1788557531 | 23.33° C | 62% | 1015.8 hPa | 0 mm | - | - | - |
| 1788555731 | 23.33° C | 62% | 1015.8 hPa | 0 mm | - | - | - |
| 1788553931 | 23.33° C | 63% | 1016 hPa | 0 mm | - | - | - |
| 1788552130 | 23.89° C | 61% | 1015.7 hPa | 0 mm | - | - | - |
| 1788550330 | 23.33° C | 63% | 1015.6 hPa | 0 mm | - | - | - |
| 1788548531 | 25.56° C | 55% | 1015.5 hPa | 0 mm | - | - | - |
| 1788546731 | 26.11° C | 53% | 1015.1 hPa | 0 mm | - | - | - |
| 1788544931 | 27.22° C | 50% | 1014.4 hPa | 0 mm | - | - | - |
| 1788543130 | 28.89° C | 45% | 1014.4 hPa | 0 mm | - | - | - |
| 1788541344 | 29.44° C | 43% | 1014.5 hPa | 0 mm | - | - | - |
| 1788539531 | 29.44° C | 43% | 1014.7 hPa | 0 mm | - | - | - |
| 1788537731 | 29.44° C | 44% | 1014.9 hPa | 0 mm | - | - | - |
| 1788535931 | 29.44° C | 44% | 1015.1 hPa | 0 mm | - | - | - |
| 1788534131 | 29.44° C | 45% | 1015.2 hPa | 0 mm | - | - | - |
* Rain since midnight (hover to see other rain measurements)
** Current wind speed in m/s (hover to see current wind gust speed)